Bryce Canyon, UT

6:12 AM MST on December 09, 2019 (GMT -0700)
Bryce Canyon

Weather History for KBCE - November, 2019

Change the Weather History Date:

Wednesday, November 13, 2019

  Actual Average Record
Temperature  
Mean Temperature 39 °F -  
Max Temperature 60 °F 44 °F 63 °F (1999)
Min Temperature 18 °F 18 °F 0 °F (1985)
Degree Days  
Heating Degree Days 26    
Moisture  
Dew Point 12 °F    
Average Humidity 37    
Maximum Humidity 57    
Minimum Humidity 14    
Precipitation  
Precipitation 0.00 in - - ()
Sea Level Pressure  
Sea Level Pressure 30.08 in    
Wind  
Wind Speed 7 mph ()    
Max Wind Speed 17 mph    
Max Gust Speed 25 mph    
Visibility 10.0 miles    
Events      
Averages and records for this station are not official NWS values.
T = Trace of Precipitation, MM = Missing Value Source: Averaged Metar Reports

Daily Weather History Graph

Daily Weather History Graph

Search for Another Location

Airport or City:

Astronomy

Nov. 13, 2019 Rise Set
Actual Time 7:06 AM MST 5:18 PM MST
Civil Twilight 6:38 AM MST 5:46 PM MST
Nautical Twilight 6:06 AM MST 6:18 PM MST
Astronomical Twilight 5:35 AM MST 6:49 PM MST
Moon 6:25 PM MST (11/13) 8:03 AM MST (11/13)
Length of Visible Light 11h 08m
Length of Day
10h 12m
Full, 98% of the Moon is Illuminated
Nov 13
Full
Nov 19
Last Quarter
Nov 26
New
Dec 3
First Quarter
Dec 11
Full

Hourly Weather History & Observations

Time (MST) Temp. Windchill Dew Point Humidity Pressure Visibility Wind Dir Wind Speed Gust Speed Precip Events Conditions
1:53 AM 26.1 °F 15.6 °F 10.9 °F 53% 30.06 in 10.0 mi West 11.5 mph - N/A   Clear
2:53 AM 24.1 °F 19.7 °F 9.0 °F 53% 30.08 in 10.0 mi NNW 3.5 mph - N/A   Clear
3:53 AM 25.0 °F 17.1 °F 9.0 °F 51% 30.06 in 10.0 mi WNW 6.9 mph - N/A   Clear
4:53 AM 26.1 °F 20.5 °F 8.1 °F 47% 30.05 in 10.0 mi NW 4.6 mph - N/A   Clear
5:53 AM 19.9 °F - 3.9 °F 50% 30.12 in 10.0 mi Calm Calm - N/A   Clear
6:53 AM 18.0 °F - 5.0 °F 57% 30.19 in 10.0 mi Calm Calm - N/A   Clear
7:53 AM 24.1 °F 16.0 °F 9.0 °F 53% 30.20 in 10.0 mi West 6.9 mph - N/A   Clear
8:53 AM 41.0 °F - 10.0 °F 28% 30.13 in 10.0 mi Calm Calm - N/A   Clear
9:53 AM 48.9 °F - 8.1 °F 19% 30.12 in 10.0 mi North 3.5 mph - N/A   Clear
10:53 AM 55.0 °F - 12.0 °F 18% 30.06 in 10.0 mi Variable 6.9 mph - N/A   Clear
11:53 AM 55.9 °F - 10.9 °F 17% 30.04 in 10.0 mi West 13.8 mph - N/A   Clear
12:53 PM 59.0 °F - 9.0 °F 14% 30.00 in 10.0 mi WNW 13.8 mph 21.9 mph N/A   Clear
1:53 PM 60.1 °F - 14.0 °F 16% 29.99 in 10.0 mi WNW 17.3 mph 20.7 mph N/A   Clear
2:53 PM 59.0 °F - 19.9 °F 22% 29.99 in 10.0 mi NNW 15.0 mph 25.3 mph N/A   Clear
3:53 PM 57.9 °F - 21.9 °F 25% 29.99 in 10.0 mi WNW 17.3 mph 23.0 mph N/A   Clear
4:53 PM 54.0 °F - 18.0 °F 24% 30.02 in 10.0 mi NW 12.7 mph - N/A   Clear
5:53 PM 50.0 °F - 16.0 °F 26% 30.08 in 10.0 mi WNW 11.5 mph - N/A   Clear
6:53 PM 48.0 °F - 17.1 °F 29% 30.12 in 10.0 mi WNW 10.4 mph - N/A   Clear
7:53 PM 37.0 °F 33.3 °F 15.1 °F 41% 30.14 in 10.0 mi WSW 4.6 mph - N/A   Clear
8:53 PM 32.0 °F 25.6 °F 12.9 °F 45% 30.10 in 10.0 mi West 6.9 mph - N/A   Clear
9:53 PM 30.9 °F 26.2 °F 12.0 °F 46% 30.09 in 10.0 mi West 4.6 mph - N/A   Clear
10:53 PM 25.0 °F 19.3 °F 10.0 °F 53% 30.09 in 10.0 mi WSW 4.6 mph - N/A   Clear
11:53 PM 26.1 °F 16.8 °F 12.0 °F 55% 30.09 in 10.0 mi West 9.2 mph - N/A   Clear